Galesburg, IL

12:05 PM CDT on August 25, 2019 (GMT -0500)
Galesburg Municipal

Weather History for KGBG - May, 2019

Change the Weather History Date:

Sunday, May 19, 2019

  Actual Average Record
Temperature  
Mean Temperature 61 °F -  
Max Temperature 70 °F 74 °F 91 °F (1962)
Min Temperature 52 °F 54 °F 39 °F (1968)
Degree Days  
Heating Degree Days 4    
Growing Degree Days 11 (Base 50)    
Moisture  
Dew Point 58 °F    
Average Humidity 82    
Maximum Humidity 96    
Minimum Humidity 68    
Precipitation  
Precipitation 0.06 in - - ()
Sea Level Pressure  
Sea Level Pressure 29.70 in    
Wind  
Wind Speed 12 mph (WSW)    
Max Wind Speed 28 mph    
Max Gust Speed 33 mph    
Visibility 10 miles    
Events Rain , Thunderstorm    
Averages and records for this station are not official NWS values.
T = Trace of Precipitation, MM = Missing Value Source: NWS Daily Summary

Daily Weather History Graph

Daily Weather History Graph

Search for Another Location

Airport or City:

Astronomy

May. 19, 2019 Rise Set
Actual Time 5:40 AM CDT 8:16 PM CDT
Civil Twilight 5:09 AM CDT 8:48 PM CDT
Nautical Twilight 4:29 AM CDT 9:27 PM CDT
Astronomical Twilight 3:45 AM CDT 10:12 PM CDT
Moon 9:16 PM CDT (5/19) 6:26 AM CDT (5/19)
Length of Visible Light 15h 38m
Length of Day
14h 35m
Full, 99% of the Moon is Illuminated
May 19
Full
May 26
Last Quarter
Jun 3
New
Jun 10
First Quarter
Jun 17
Full

Hourly Weather History & Observations

Time (CDT) Temp. Dew Point Humidity Pressure Visibility Wind Dir Wind Speed Gust Speed Precip Events Conditions
12:15 AM 66.2 °F 61.3 °F 84% 29.62 in 10.0 mi ESE 6.9 mph - N/A   Overcast
12:35 AM 67.5 °F 61.3 °F 81% 29.61 in 10.0 mi ESE 10.4 mph 17.3 mph N/A   Overcast
12:55 AM 67.5 °F 61.3 °F 81% 29.60 in 10.0 mi ESE 11.5 mph 17.3 mph N/A Rain Light Rain
1:15 AM 67.3 °F 60.8 °F 80% 29.59 in 10.0 mi ESE 11.5 mph 18.4 mph N/A   Scattered Clouds
1:35 AM 67.1 °F 60.8 °F 80% 29.59 in 10.0 mi SW 12.7 mph 19.6 mph N/A   Clear
1:55 AM 66.4 °F 60.8 °F 82% 29.59 in 10.0 mi WSW 11.5 mph - N/A   Clear
2:15 AM 65.7 °F 60.8 °F 84% 29.60 in 10.0 mi WSW 9.2 mph 16.1 mph N/A   Clear
2:35 AM 65.3 °F 60.4 °F 84% 29.59 in 10.0 mi SW 11.5 mph 16.1 mph N/A   Scattered Clouds
2:55 AM 64.8 °F 60.1 °F 85% 29.59 in 10.0 mi SW 6.9 mph - N/A   Scattered Clouds
3:15 AM 63.7 °F 60.1 °F 88% 29.59 in 10.0 mi SW 5.8 mph - N/A   Scattered Clouds
3:35 AM 63.5 °F 59.9 °F 88% 29.59 in 10.0 mi WSW 10.4 mph - N/A   Clear
3:55 AM 63.3 °F 59.7 °F 88% 29.60 in 10.0 mi WSW 11.5 mph - N/A   Scattered Clouds
4:15 AM 63.7 °F 59.9 °F 87% 29.60 in 10.0 mi WSW 10.4 mph - N/A   Mostly Cloudy
4:35 AM 63.5 °F 59.9 °F 88% 29.61 in 10.0 mi WSW 10.4 mph - N/A   Overcast
4:55 AM 63.5 °F 59.9 °F 88% 29.59 in 10.0 mi WSW 9.2 mph - N/A   Overcast
5:15 AM 63.0 °F 59.7 °F 89% 29.60 in 10.0 mi WSW 9.2 mph - N/A   Overcast
5:35 AM 62.8 °F 59.9 °F 90% 29.61 in 10.0 mi WSW 9.2 mph - N/A   Overcast
5:55 AM 62.6 °F 59.9 °F 91% 29.61 in 10.0 mi WSW 12.7 mph - N/A   Overcast
6:15 AM 62.6 °F 59.5 °F 90% 29.60 in 10.0 mi WSW 10.4 mph 16.1 mph N/A   Overcast
6:35 AM 62.6 °F 59.7 °F 90% 29.61 in 10.0 mi WSW 13.8 mph - N/A   Overcast
6:55 AM 62.6 °F 59.5 °F 90% 29.61 in 10.0 mi SW 10.4 mph - N/A   Overcast
7:15 AM 63.1 °F 60.1 °F 90% 29.59 in 10.0 mi ESE 8.1 mph - N/A   Overcast
7:35 AM 63.5 °F 59.9 °F 88% 29.60 in 10.0 mi SW 9.2 mph - N/A   Mostly Cloudy
7:55 AM 63.1 °F 60.1 °F 90% 29.60 in 10.0 mi ESE 12.7 mph 17.3 mph N/A   Overcast
8:15 AM 62.8 °F 60.6 °F 93% 29.60 in 10.0 mi East 12.7 mph - N/A   Overcast
8:35 AM 63.5 °F 60.8 °F 91% 29.61 in 10.0 mi SW 8.1 mph - N/A   Overcast
8:55 AM 63.3 °F 62.2 °F 96% 29.62 in 4.0 mi WSW 10.4 mph - N/A Rain Rain
9:15 AM 64.6 °F 62.8 °F 94% 29.62 in 10.0 mi SW 11.5 mph 20.7 mph N/A Thunderstorm Thunderstorm
9:35 AM 65.5 °F 61.9 °F 88% 29.62 in 10.0 mi WSW 15.0 mph 21.9 mph N/A   Overcast
9:55 AM 67.1 °F 61.9 °F 83% 29.61 in 10.0 mi WSW 21.9 mph 26.5 mph N/A   Overcast
10:15 AM 68.4 °F 61.3 °F 78% 29.62 in 10.0 mi WSW 23.0 mph 28.8 mph N/A   Mostly Cloudy
10:35 AM 67.1 °F 60.1 °F 78% 29.62 in 10.0 mi WSW 19.6 mph 31.1 mph N/A   Mostly Cloudy
10:55 AM 59.4 °F 55.2 °F 86% 29.63 in 4.0 mi SW 18.4 mph 24.2 mph 0.06 in Rain , Thunderstorm Rain
11:15 AM 63.7 °F 57.9 °F 81% 29.63 in 10.0 mi SW 16.1 mph 25.3 mph N/A Thunderstorm Mostly Cloudy
11:35 AM 67.8 °F 60.4 °F 77% 29.63 in 10.0 mi SW 23.0 mph 27.6 mph N/A   Scattered Clouds
11:55 AM 69.1 °F 57.9 °F 68% 29.65 in 10.0 mi SW 16.1 mph 24.2 mph N/A   Scattered Clouds
12:15 PM 69.3 °F 59.5 °F 71% 29.66 in 10.0 mi WSW 15.0 mph 23.0 mph N/A   Mostly Cloudy
12:35 PM 68.5 °F 58.6 °F 71% 29.66 in 10.0 mi SW 15.0 mph 20.7 mph N/A   Mostly Cloudy
12:55 PM 68.4 °F 58.6 °F 71% 29.66 in 10.0 mi SW 12.7 mph 20.7 mph N/A   Mostly Cloudy
1:15 PM 67.8 °F 59.7 °F 75% 29.67 in 10.0 mi WSW 12.7 mph 23.0 mph N/A   Overcast
1:35 PM 67.1 °F 60.1 °F 78% 29.68 in 10.0 mi West 16.1 mph 24.2 mph N/A   Overcast
1:55 PM 66.9 °F 61.0 °F 81% 29.69 in 10.0 mi WSW 11.5 mph 18.4 mph N/A   Mostly Cloudy
2:15 PM 68.0 °F 60.4 °F 77% 29.69 in 10.0 mi West 18.4 mph - N/A   Mostly Cloudy
2:35 PM 68.4 °F 59.5 °F 73% 29.69 in 10.0 mi West 13.8 mph - N/A   Mostly Cloudy
2:55 PM 68.7 °F 58.8 °F 71% 29.70 in 10.0 mi West 17.3 mph - N/A   Mostly Cloudy
3:15 PM 70.5 °F 59.7 °F 69% 29.70 in 10.0 mi West 15.0 mph 23.0 mph N/A   Mostly Cloudy
3:35 PM 65.8 °F 59.2 °F 79% 29.71 in 7.0 mi West 23.0 mph 31.1 mph N/A Rain Light Rain
3:55 PM 65.1 °F 59.0 °F 81% 29.72 in 10.0 mi WSW 13.8 mph - N/A   Overcast
4:15 PM 67.6 °F 60.1 °F 77% 29.72 in 10.0 mi West 17.3 mph 24.2 mph N/A   Overcast
4:35 PM 66.6 °F 59.2 °F 77% 29.73 in 10.0 mi West 15.0 mph 27.6 mph N/A Rain Light Rain
4:55 PM 68.0 °F 59.4 °F 74% 29.74 in 10.0 mi West 27.6 mph 33.4 mph N/A   Overcast
5:15 PM 64.8 °F 57.9 °F 78% 29.77 in 10.0 mi West 21.9 mph 28.8 mph N/A   Overcast
5:35 PM 63.5 °F 54.3 °F 72% 29.77 in 10.0 mi West 17.3 mph 27.6 mph N/A   Overcast
5:55 PM 64.2 °F 55.2 °F 73% 29.76 in 10.0 mi West 21.9 mph 25.3 mph N/A   Overcast
6:15 PM 62.8 °F 54.7 °F 75% 29.77 in 10.0 mi West 18.4 mph 25.3 mph N/A   Mostly Cloudy
6:35 PM 62.1 °F 54.3 °F 76% 29.79 in 10.0 mi West 19.6 mph - N/A   Overcast
6:55 PM 60.6 °F 54.0 °F 79% 29.80 in 10.0 mi West 17.3 mph - N/A   Overcast
7:15 PM 59.9 °F 53.8 °F 80% 29.82 in 10.0 mi West 19.6 mph 28.8 mph N/A Rain Rain
7:35 PM 58.1 °F 53.2 °F 84% 29.83 in 10.0 mi West 18.4 mph 21.9 mph N/A   Overcast
7:55 PM 56.7 °F 53.2 °F 88% 29.84 in 10.0 mi West 17.3 mph 21.9 mph N/A   Overcast
8:15 PM 56.7 °F 52.7 °F 87% 29.85 in 10.0 mi West 13.8 mph 20.7 mph N/A   Overcast
8:35 PM 56.7 °F 52.0 °F 84% 29.86 in 10.0 mi West 16.1 mph 21.9 mph N/A   Overcast
8:55 PM 56.7 °F 52.2 °F 85% 29.87 in 10.0 mi West 11.5 mph - N/A   Overcast
9:15 PM 56.3 °F 51.1 °F 83% 29.89 in 10.0 mi West 13.8 mph - N/A   Overcast
9:35 PM 56.1 °F 49.6 °F 79% 29.90 in 10.0 mi West 18.4 mph 23.0 mph N/A   Overcast
9:55 PM 55.4 °F 49.5 °F 80% 29.90 in 10.0 mi West 11.5 mph - N/A   Overcast
10:15 PM 54.5 °F 49.1 °F 82% 29.91 in 10.0 mi West 13.8 mph 20.7 mph N/A   Mostly Cloudy
10:35 PM 54.0 °F 48.0 °F 80% 29.92 in 10.0 mi West 15.0 mph 23.0 mph N/A   Scattered Clouds
10:55 PM 54.1 °F 48.2 °F 80% 29.92 in 10.0 mi West 13.8 mph 21.9 mph N/A   Mostly Cloudy
11:15 PM 52.9 °F 48.2 °F 84% 29.92 in 10.0 mi West 12.7 mph - N/A   Scattered Clouds
11:35 PM 52.3 °F 48.2 °F 86% 29.92 in 10.0 mi West 10.4 mph - N/A   Scattered Clouds
11:55 PM 52.5 °F 48.6 °F 86% 29.93 in 10.0 mi West 11.5 mph - N/A   Mostly Cloudy